Regional Weather Roundup
Issued by NWS Bismarck, ND

Home | Current Version | Previous Version | Text Only | Print | Product List | Glossary On
Versions: 1 2 3 4 5 6 7 8 9 10 11 12 13 14 15 16 17 18 19 20 21 22 23 24 25 26 27 28 29 30 31 32 33 34 35 36 37 38 39 40 41 42 43 44 45 46 47 48 49 50
000
ASUS43 KBIS 250110
RWRBIS

NWR BROADCAST TEXT
NATIONAL WEATHER SERVICE BISMARCK ND
800 PM CDT FRI OCT 24 2014

NOTE: "FAIR" INDICATES FEW OR NO CLOUDS BELOW 12,000 FEET WITH NO
SIGNIFICANT WEATHER AND/OR OBSTRUCTIONS TO VISIBILITY.


CITY           SKY/WX    TMP DP  RH WIND       PRES   REMARKS
WILLISTON      PTCLDY    44  27  51 W8        30.00R
MINOT          CLEAR     54  27  35 W16       29.93R
MINOT AFB      CLEAR     49  30  48 W12       29.93R
BISMARCK       MOCLDY    57  33  40 W8        29.99R
DICKINSON      PTCLDY    44  29  55 W9        30.02R
GARRISON         N/A     52  30  43 W10       29.97R
HETTINGER ARPT CLOUDY    51  35  54 NW5       30.05S
JAMESTOWN      CLEAR     54  34  46 W12       29.92R
BEACH            N/A     46  28  49 W7        30.05S
CARRINGTON     FAIR      50  32  50 W13       29.92R
CROSBY         FAIR      41  28  60 W8        29.97R
HARVEY         FAIR      54  28  37 W12       29.93R
HAZEN          FAIR      48  28  46 CALM      29.99R
LINTON         MOCLDY    57  37  47 W5        29.98S
MANDAN         FAIR      50  32  50 W9        30.00R
OAKES            N/A     59  39  47 NW9       29.93R
RUGBY          FAIR      48  36  61 W10       29.90R
STANLEY        FAIR      43  32  65 W8        29.97R
TIOGA          FAIR      41  28  60 W9        30.01R
$$

CITY           SKY/WX    TMP DP  RH WIND       PRES   REMARKS
GRAND FORKS    PTCLDY    58  33  39 W9        29.82R
GRAND FORKS AF PTCLDY    56  33  41 W8        29.84R
DEVILS LAKE    CLEAR     54  34  47 W13       29.86R
FARGO          MOCLDY    62  34  35 W16       29.86R
CANDO          FAIR      50  32  50 W12       29.88R
CAVALIER       FAIR      57  36  44 W13       29.79R
GRAFTON        FAIR      55  37  50 W8        29.81R
GWINNER        CLEAR     63  37  39 NW10      29.92R
LANGDON        FAIR      54  32  43 W15       29.82R
ROLLA          FAIR      54  32  43 W20G25    29.87R
WALHALLA         N/A     55  36  47 W8        29.80R
$$

CITY           SKY/WX    TMP DP  RH WIND       PRES   REMARKS
ABERDEEN       MOCLDY    65  39  38 NW10      29.94R
MOBRIDGE       CLOUDY    63  37  38 NW7       29.99R
BUFFALO          N/A     56  27  32 W8        30.02R
RAPID CITY     CLEAR     57  37  47 N13       30.07R
GLASGOW        CLEAR     49  27  42 SW3       30.03R
SIDNEY         PTCLDY    52  27  37 SW7       30.04S
WOLF POINT     PTCLDY    52  29  41 W12       30.03R
GLENDIVE       PTCLDY    46  32  57 W9        30.06S
MILES CITY     CLOUDY    53  33  46 SW8       30.07R
BAKER          MOCLDY    49  29  46 W12       30.08R
$$

CITY           SKY/WX    TMP DP  RH WIND       PRES   REMARKS
BILLINGS       CLOUDY    53  37  54 NE5       30.09R
GREAT FALLS    CLOUDY    50  35  56 SW3       30.06R
REGINA         PTCLDY    43  32  65 W10       29.94R
ESTEVAN        PTCLDY    46  30  53 W9G17     29.95R
$$




USA.gov is the U.S. government's official web portal to all federal, state and local government web resources and services.